This is the latest recevied weather packets stored in our database for station/object N4QD-13. If no packets are shown the sender has not sent any weather packets the latest 10 day(s).
| Time | Temp. | Humidity | Pressure | Rain* | Wind** | Luminosity | Snow |
|---|---|---|---|---|---|---|---|
| 1778014455 | 27.22° C | 36% | 1011.2 hPa | 0 mm | - | 653 W/m² | - |
| 1778014151 | 26.67° C | 37% | 1011.4 hPa | 0 mm | - | 533 W/m² | - |
| 1778013849 | 27.78° C | 36% | 1011.3 hPa | 0 mm | - | 301 W/m² | - |
| 1778013546 | 27.22° C | 37% | 1011.1 hPa | 0 mm | - | 747 W/m² | - |
| 1778013242 | 26.67° C | 37% | 1011 hPa | 0 mm | - | 393 W/m² | - |
| 1778012939 | 26.67° C | 37% | 1011.1 hPa | 0 mm | - | 313 W/m² | - |
| 1778012635 | 26.67° C | 37% | 1011.1 hPa | 0 mm | - | 329 W/m² | - |
| 1778012332 | 26.67° C | 34% | 1011.1 hPa | 0 mm | - | 397 W/m² | - |
| 1778012029 | 27.22° C | 32% | 1011 hPa | 0 mm | - | 302 W/m² | - |
| 1778011727 | 27.22° C | 30% | 1011 hPa | 0 mm | - | 379 W/m² | - |
| 1778011424 | 27.22° C | 29% | 1011.3 hPa | 0 mm | - | 553 W/m² | - |
| 1778011120 | 27.22° C | 29% | 1011.4 hPa | 0 mm | - | 684 W/m² | - |
| 1778010817 | 27.78° C | 29% | 1011.3 hPa | 0 mm | - | 734 W/m² | - |
| 1778010514 | 27.22° C | 29% | 1011.4 hPa | 0 mm | - | 712 W/m² | - |
| 1778010212 | 27.78° C | 28% | 1011.4 hPa | 0 mm | - | 544 W/m² | - |
| 1778009912 | 27.22° C | 32% | 1011.3 hPa | 0 mm | - | 790 W/m² | - |
| 1778009610 | 27.22° C | 33% | 1011.2 hPa | 0 mm | - | 664 W/m² | - |
| 1778009307 | 27.22° C | 32% | 1011.2 hPa | 0 mm | - | 708 W/m² | - |
| 1778009006 | 27.78° C | 31% | 1011.6 hPa | 0 mm | - | 671 W/m² | - |
| 1778008703 | 27.78° C | 32% | 1011.5 hPa | 0 mm | - | 650 W/m² | - |
| 1778008401 | 27.22° C | 33% | 1011.4 hPa | 0 mm | - | 719 W/m² | - |
| 1778008098 | 27.78° C | 33% | 1011.4 hPa | 0 mm | - | 798 W/m² | - |
| 1778007793 | 27.78° C | 33% | 1011.6 hPa | 0 mm | - | 795 W/m² | - |
| 1778007489 | 27.22° C | 33% | 1011.6 hPa | 0 mm | - | 763 W/m² | - |
| 1778007186 | 26.67° C | 33% | 1011.8 hPa | 0 mm | - | 749 W/m² | - |
* Rain latest hour (hover to see other rain measurements)
** Current wind speed in m/s (hover to see current wind gust speed)